This demonstration page uses our WeatherBlox Daily Observations layout. Learn more.

Hourly Observations for March 19, 2018

Temp ( °F °C ) Dew Point ( °F °C ) Humidity (%) Winds ( mph kmh ) Pressure ( in mb ) Visibility ( mi km ) Precip ( " mm )
12:15 am 00:15 Cloudy with Light Rain 36 2 36 2 100 100 NE 17 28 29.85 1011 2 3.21868 0 0
12:35 am 00:35 Cloudy with Light Rain 35 1.7 35 1.7 100 100 NE 17 28 29.85 1011 2.5 4.02335 0.02 0.508
12:55 am 00:55 Cloudy with Rain 34 1.3 34 1.3 100 100 NE 15 24 29.85 1011 1.75 2.816345 0.09 2.286
1:15 am 01:15 Cloudy with Light Rain 33 0.8 33 0.8 100 100 NE 9 15 29.85 1011 1.75 2.816345 0.07 1.778
1:35 am 01:35 Cloudy with Light Snow 33 0.5 33 0.5 100 100 NNE 9 15 29.88 1012 1.25 2.011675 0.1 2.54
1:55 am 01:55 Cloudy with Light Snow 33 0.3 33 0.3 100 100 NNE 9 15 29.88 1012 1.25 2.011675 0.12 3.048
2:15 am 02:15 Cloudy with Snow 32 0.2 32 0.2 100 100 NNE 12 19 29.88 1012 1 1.60934 0.03 0.762
2:35 am 02:35 Cloudy with Light Snow 33 0.3 33 0.3 100 100 NE 12 19 29.88 1012 1.5 2.41401 0.06 1.524
2:55 am 02:55 Cloudy with Light Snow 32 0.2 32 0.2 100 100 NNE 13 20 29.88 1012 1.75 2.816345 0.13 3.302
3:15 am 03:15 Cloudy with Light Snow 33 0.3 33 0.3 100 100 NNE 13 20 29.88 1012 2.5 4.02335 0.05 1.27
3:35 am 03:35 Cloudy with Light Snow 33 0.3 33 0.3 100 100 NNE 13 20 29.88 1012 3 4.82802 0.06 1.524
3:55 am 03:55 Cloudy with Light Snow 33 0.3 33 0.3 100 100 NNE 14 22 29.88 1012 3 4.82802 0.06 1.524
4:15 am 04:15 Cloudy with Light Snow 33 0.3 33 0.3 100 100 NNE 14 22 29.88 1012 2 3.21868 0 0
4:35 am 04:35 Cloudy with Snow 32 0.2 32 0.2 100 100 NNE 16 26 29.88 1012 0.75 1.207005 0.01 0.254
4:55 am 04:55 Cloudy with Light Snow 33 0.3 33 0.3 100 100 N 13 20 29.88 1012 1.5 2.41401 0.02 0.508
5:15 am 05:15 Cloudy with Light Snow 33 0.3 33 0.3 100 100 N 13 20 29.88 1012 1.25 2.011675 0.01 0.254
5:35 am 05:35 Cloudy with Light Snow 33 0.3 33 0.3 100 100 N 13 20 29.88 1012 1.25 2.011675 0.02 0.508
5:55 am 05:55 Cloudy with Light Snow 33 0.3 33 0.3 100 100 N 13 20 29.88 1012 2 3.21868 0.04 1.016
6:15 am 06:15 Cloudy with Light Snow 33 0.3 33 0.3 100 100 N 12 19 29.88 1012 2 3.21868 0.06 1.524
6:35 am 06:35 Cloudy with Light Snow 33 0.3 33 0.3 100 100 N 10 17 29.88 1012 3 4.82802 0.09 2.286
6:55 am 06:55 Cloudy with Light Snow 33 0.5 33 0.5 100 100 N 12 19 29.88 1012 5 8.0467 0.1 2.54
7:15 am 07:15 Cloudy with Light Snow 33 0.5 33 0.5 100 100 N 13 20 29.91 1013 5 8.0467 0.01 0.254
7:35 am 07:35 Cloudy with Light Rain 33 0.5 33 0.5 100 100 N 12 19 29.91 1013 4 6.43736 0.01 0.254
7:55 am 07:55 Cloudy 33 0.6 33 0.6 100 100 N 12 19 29.91 1013 7 11.26538 0.01 0.254
8:15 am 08:15 Cloudy 33 0.7 33 0.7 100 100 N 13 20 29.91 1013 7 11.26538 0 0
8:35 am 08:35 Cloudy 33 0.8 33 0.8 100 100 N 14 22 29.94 1014 7 11.26538 0 0
8:55 am 08:55 Cloudy with Drizzle 33 0.7 33 0.7 100 100 N 15 24 29.94 1014 4 6.43736 0 0
9:15 am 09:15 Cloudy 33 0.7 33 0.6 99 99 N 13 20 29.94 1014 7 11.26538 0 0
9:35 am 09:35 Cloudy 33 0.8 33 0.7 99 99 N 14 22 29.97 1015 10 16.0934 0 0
9:55 am 09:55 Cloudy 33 0.8 33 0.7 99 99 N 16 26 29.97 1015 10 16.0934 0 0
10:15 am 10:15 Cloudy 34 1 33 0.7 98 98 N 15 24 29.97 1015 10 16.0934 0 0
10:35 am 10:35 Cloudy 34 1.1 33 0.6 97 97 N 17 28 29.97 1015 10 16.0934 0 0
10:55 am 10:55 Cloudy 34 1.1 33 0.5 96 96 N 17 28 30 1016 10 16.0934 0 0
11:15 am 11:15 Cloudy 34 1.1 33 0.5 96 96 N 18 30 30 1016 10 16.0934 0 0
11:35 am 11:35 Cloudy 34 1.1 33 0.5 96 96 N 16 26 30 1016 10 16.0934 0 0
11:55 am 11:55 Cloudy 34 1.1 33 0.6 97 97 N 21 33 30 1016 10 16.0934 0 0
12:15 pm 12:15 Cloudy with Light Snow 34 1 33 0.5 97 97 N 18 30 30.03 1017 7 11.26538 0 0
12:35 pm 12:35 Cloudy 34 1 33 0.5 97 97 N 18 30 30.03 1017 7 11.26538 0 0
12:55 pm 12:55 Cloudy 34 1.1 33 0.5 96 96 N 16 26 30.03 1017 10 16.0934 0 0
1:15 pm 13:15 Cloudy 34 1.2 33 0.5 95 95 N 17 28 30.03 1017 10 16.0934 0 0
1:35 pm 13:35 Cloudy with Mist and Fog 34 1.3 33 0.5 94 94 N 13 20 30.03 1017 5 8.0467 0 0
1:55 pm 13:55 Cloudy with Light Rain 34 1.2 33 0.7 97 97 N 15 24 30.03 1017 3 4.82802 0 0
2:15 pm 14:15 Cloudy with Light Wintry Mix 34 1.2 34 1 99 99 N 15 24 30.03 1017 3 4.82802 0 0
2:35 pm 14:35 Cloudy with Light Wintry Mix 34 1.1 34 1 99 99 N 14 22 30.03 1017 3 4.82802 0 0
2:55 pm 14:55 Cloudy with Light Snow 34 1 34 0.9 99 99 N 13 20 30.03 1017 1.5 2.41401 0.01 0.254
3:15 pm 15:15 Cloudy with Light Snow 34 1.1 34 1 99 99 N 12 19 30.03 1017 1.75 2.816345 0 0
3:35 pm 15:35 Cloudy with Light Snow 34 1 33 0.8 99 99 NNW 10 17 30.03 1017 1.5 2.41401 0 0
3:55 pm 15:55 Cloudy with Light Snow 34 1 34 1 100 100 NNW 13 20 30.03 1017 1.75 2.816345 0.01 0.254
4:15 pm 16:15 Cloudy with Light Snow 34 0.9 34 0.9 100 100 NNW 14 22 30.03 1017 1.25 2.011675 0 0
4:35 pm 16:35 Cloudy with Light Snow 33 0.8 33 0.8 100 100 NNW 14 22 30.03 1017 1.75 2.816345 0.01 0.254
4:55 pm 16:55 Cloudy with Light Snow 33 0.8 33 0.8 100 100 NNW 10 17 30.03 1017 1.5 2.41401 0.01 0.254
5:15 pm 17:15 Cloudy with Light Snow 33 0.8 33 0.8 100 100 N 15 24 30.03 1017 1.75 2.816345 0.01 0.254
5:35 pm 17:35 Cloudy with Light Rain 33 0.8 33 0.8 100 100 N 13 20 30.06 1018 2 3.21868 0.01 0.254
5:55 pm 17:55 Cloudy with Light Snow 33 0.7 33 0.7 100 100 NNW 13 20 30.06 1018 1.5 2.41401 0.02 0.508
6:15 pm 18:15 Cloudy with Light Snow 33 0.7 33 0.7 100 100 N 14 22 30.06 1018 1.5 2.41401 0.01 0.254
6:35 pm 18:35 Cloudy with Light Snow 33 0.6 33 0.6 100 100 N 13 20 30.06 1018 1.75 2.816345 0.01 0.254
6:55 pm 18:55 Cloudy with Light Snow 33 0.6 33 0.6 100 100 NNW 10 17 30.06 1018 1.5 2.41401 0.02 0.508
7:15 pm 19:15 Cloudy with Light Snow 33 0.6 33 0.6 100 100 NNW 12 19 30.09 1019 2 3.21868 0 0
7:35 pm 19:35 Cloudy with Light Snow 33 0.5 33 0.5 100 100 NNW 12 19 30.09 1019 1.75 2.816345 0.01 0.254
7:55 pm 19:55 Cloudy with Light Snow 33 0.5 33 0.5 100 100 NNW 13 20 30.09 1019 2 3.21868 0.01 0.254
8:15 pm 20:15 Cloudy with Light Wintry Mix 33 0.5 33 0.5 100 100 N 13 20 30.09 1019 4 6.43736 0 0
8:35 pm 20:35 Cloudy with Light Snow 33 0.6 33 0.6 100 100 N 14 22 30.09 1019 7 11.26538 0 0
8:55 pm 20:55 Cloudy with Drizzle 33 0.6 33 0.6 100 100 NNW 12 19 30.12 1020 10 16.0934 0 0
9:15 pm 21:15 Cloudy with Light Snow 33 0.6 33 0.6 100 100 NNW 9 15 30.12 1020 4 6.43736 0 0
9:35 pm 21:35 Cloudy with Light Snow 33 0.5 33 0.5 100 100 NNW 12 19 30.12 1020 4 6.43736 0 0
9:55 pm 21:55 Cloudy with Light Snow 33 0.5 33 0.5 100 100 NNW 12 19 30.12 1020 4 6.43736 0 0
10:15 pm 22:15 Cloudy with Light Snow 33 0.5 33 0.5 100 100 N 12 19 30.12 1020 10 16.0934 0 0
10:35 pm 22:35 Mostly Cloudy with Light Snow 33 0.3 32 0.2 99 99 NNW 10 17 30.12 1020 10 16.0934 0 0
10:55 pm 22:55 Mostly Cloudy 32 0.2 32 0.2 100 100 NNW 8 13 30.12 1020 10 16.0934 0 0
11:15 pm 23:15 Cloudy 32 0.2 32 0.1 99 99 NNW 8 13 30.12 1020 10 16.0934 0 0
11:35 pm 23:35 Cloudy 32 0.2 32 0.1 99 99 N 9 15 30.12 1020 10 16.0934 0 0
11:55 pm 23:55 Mostly Cloudy 32 0.1 32 0 99 99 N 8 13 30.12 1020 10 16.0934 0 0

Powered by AerisWeather